EHI
13 11 7 5 4 4 4 5 7 8 6 4 5 5 4 4 4 5 4 4 4 2 1 0 0 0 0 0 0 0 0 0 0 0 0 0 0 0 0 0 0 0 0
15 13 10 7 6 6 5 5 7 8 6 5 5 5 4 4 4 5 5 5 4 3 1 0 0 0 0 0 0 0 0 0 0 0 0 0 0 0 0 0 0 0 0
16 16 14 10 8 7 6 5 7 8 8 6 5 5 4 4 4 6 6 6 5 3 1 1 0 0 0 0 0 0 0 0 0 0 0 0 0 0 0 0 0 0 0
17 18 18 15 12 10 7 7 7 8 8 7 5 5 5 4 5 6 6 5 5 4 3 3 1 0 0 0 0 0 0 0 0 0 0 0 0 1 1 1 1 0 1
19 20 20 19 17 13 12 11 11 10 8 7 6 5 6 5 5 5 5 5 7 7 7 6 3 1 0 0 0 0 0 0 0 0 1 1 3 4 3 2 2 1 1
21 21 21 20 19 17 16 16 15 12 8 6 5 6 5 4 2 2 3 6 8 10 10 8 4 1 0 0 0 0 0 0 0 0 1 3 5 6 5 3 2 1 1
21 20 21 20 19 17 17 16 14 11 8 6 6 6 5 3 1 0 1 3 6 7 8 7 5 2 1 1 1 0 0 0 0 0 1 2 4 6 6 5 4 3 2
20 20 20 20 16 14 13 11 9 9 8 8 6 6 5 2 0 0 0 1 2 2 3 4 4 3 2 2 1 1 1 0 0 0 0 0 2 4 5 6 6 5 4
17 17 18 17 14 10 7 6 7 8 8 8 7 6 4 2 0 0 0 0 0 0 0 1 2 2 2 1 1 2 2 2 1 0 0 0 0 2 3 5 6 5 4
11 12 13 13 11 8 5 5 7 8 7 6 5 4 3 1 0 0 0 0 0 0 0 0 1 1 1 0 0 1 2 3 3 2 1 1 1 1 2 3 4 5 5
8 8 9 9 8 7 5 5 6 6 5 4 2 1 1 1 0 0 0 0 0 0 0 0 0 0 0 0 0 0 1 2 2 2 2 2 2 3 4 4 5 6 6
6 6 5 6 5 5 3 3 3 3 3 2 1 0 0 0 0 0 0 0 0 0 0 0 0 0 0 0 0 0 0 0 1 1 2 3 3 4 5 5 5 5 6
3 2 2 2 2 1 1 1 1 1 1 1 0 0 0 0 0 0 0 0 0 0 0 0 0 0 0 0 0 0 0 0 0 0 1 2 3 3 3 3 3 3 3
1 0 0 0 0 0 0 0 0 0 0 0 0 0 0 0 0 0 0 0 0 0 0 0 0 0 0 0 0 0 0 0 0 0 0 1 2 2 1 1 1 1 1
0 0 0 0 0 0 0 0 0 0 0 0 0 0 0 0 0 0 0 0 0 0 0 0 0 0 0 0 0 0 0 0 0 0 0 0 1 1 0 0 0 0 0
0 0 0 0 0 0 0 0 0 0 0 0 0 0 0 0 0 0 0 0 0 0 0 0 0 0 0 0 0 0 0 0 0 0 0 0 0 0 0 0 0 0 0
0 0 0 0 0 0 0 0 0 0 0 0 0 0 0 0 0 0 0 0 0 0 0 0 0 0 0 0 0 0 0 0 0 0 0 0 0 0 0 0 0 0 0
0 0 0 0 0 0 0 0 0 0 0 0 0 0 0 0 0 0 0 0 0 0 0 0 0 0 0 0 0 0 0 0 0 0 0 0 0 0 0 0 0 0 0
0 0 0 0 0 0 0 0 0 0 0 0 0 0 0 0 0 0 0 0 0 0 0 0 0 0 0 0 0 0 0 0 0 0 0 0 0 0 0 0 0 0 0
0 0 0 0 0 0 0 0 0 0 0 0 0 0 0 0 0 0 0 0 0 0 0 0 0 0 0 0 0 0 0 0 0 0 0 0 0 0 0 0 0 0 0
0 0 0 0 0 0 0 0 0 0 0 0 0 0 0 0 0 0 0 0 0 0 0 0 0 0 0 0 0 0 0 0 0 0 0 0 0 0 0 0 0 0 0
0 0 0 0 0 0 0 0 0 0 0 0 0 0 0 0 0 0 0 0 0 0 0 0 0 0 0 0 0 0 0 0 0 0 0 0 0 0 0 0 0 0 0
0 0 0 0 0 0 0 0 0 0 0 0 0 0 0 0 0 0 0 0 0 0 0 0 0 0 0 0 0 0 0 0 0 0 0 0 0 0 0 0 0 0 0
0 0 0 0 0 0 0 0 0 0 0 0 0 0 0 0 0 0 0 0 0 0 0 0 0 0 0 0 0 0 0 0 0 0 0 0 0 0 0 0 0 0 0
0 0 0 0 0 0 0 0 0 0 0 0 0 0 0 0 0 0 0 0 0 0 0 0 0 0 0 0 0 0 0 0 0 0 0 0 0 0 0 0 0 0 0
0 0 0 0 0 0 0 0 0 0 0 0 0 0 0 0 0 0 0 0 0 0 0 0 0 0 0 0 0 0 0 0 0 0 0 0 0 0 0 0 0 0 0
Wind_Speed
11 11 10 10 10 10 9 9 9 8 8 9 9 9 9 9 9 8 8 7 8 7 7 7 7 6 5 5 5 5 5 5 6 5 3 3 4 7 5 6 8 8 9
10 10 10 10 9 10 10 9 9 8 9 9 9 9 9 9 9 10 10 9 9 9 9 8 8 7 7 7 5 6 5 5 7 7 5 5 7 7 7 7 8 8 8
10 10 9 9 9 9 9 8 8 8 8 8 8 8 9 9 9 9 9 9 9 9 9 9 9 8 8 7 7 7 6 6 7 7 7 5 6 6 7 8 10 7 9
10 10 9 9 9 8 7 7 8 8 7 8 8 8 8 7 8 8 9 9 9 9 8 8 9 9 9 8 8 8 8 7 7 8 8 7 6 7 6 7 8 7 8
9 9 9 8 8 7 7 6 6 6 6 6 6 5 5 5 6 7 8 9 9 9 8 8 8 6 5 5 6 6 7 7 7 8 8 8 7 6 6 6 7 7 7
8 7 7 7 7 6 6 6 5 5 4 4 4 4 4 3 0 2 6 7 7 7 7 7 6 5 6 6 7 7 7 8 9 8 8 8 7 7 6 7 7 8 8
7 7 7 7 6 6 5 5 5 4 3 3 3 2 1 1 2 1 3 4 4 4 3 3 4 3 3 5 7 9 9 8 8 9 10 9 8 6 6 9 8 9 9
8 7 7 7 7 6 5 4 4 3 3 3 3 3 3 5 5 1 1 3 2 1 1 1 2 2 2 4 6 6 6 6 7 7 7 8 7 6 6 8 10 10 11
9 8 7 7 7 7 7 6 5 5 5 5 5 6 6 8 9 5 2 1 1 0 1 2 1 1 5 5 5 5 6 5 3 3 5 6 7 7 7 7 8 9 10
10 9 8 8 8 8 8 7 7 7 7 7 8 8 9 9 11 10 5 2 2 1 2 4 7 6 5 5 4 4 5 5 5 4 4 6 7 7 8 8 8 9 10
10 10 10 10 10 10 9 8 8 8 9 9 9 9 9 9 11 13 10 5 4 3 3 3 5 7 6 5 4 3 4 6 6 6 5 5 5 5 5 5 6 7 9
11 12 11 10 10 9 9 8 8 8 9 8 8 7 6 7 9 9 10 9 6 3 3 3 4 5 4 3 2 3 5 6 6 5 5 5 5 5 4 6 7 8 9
12 12 11 11 10 9 9 8 7 6 6 6 5 5 5 5 6 7 6 6 5 3 3 3 1 2 4 3 2 3 6 5 4 5 5 5 5 5 6 6 8 8 10
12 11 10 10 10 9 7 7 7 6 6 5 5 5 5 5 6 6 4 3 2 2 3 1 6 6 5 3 3 4 4 3 5 6 6 6 6 6 6 7 7 7 8
11 10 10 10 10 9 10 10 9 10 9 7 6 6 5 6 8 10 8 7 8 7 8 5 3 3 3 3 4 4 4 4 4 5 6 7 7 7 7 7 7 8 9
9 8 7 7 7 8 9 10 15 12 13 14 14 10 9 9 6 7 7 6 7 9 8 4 4 5 5 5 6 5 5 5 6 7 7 7 7 7 8 8 8 8 9
8 7 6 6 6 5 5 6 7 8 10 11 11 11 9 6 6 6 6 7 8 9 5 4 5 5 6 6 6 6 6 6 6 7 7 7 7 8 8 8 8 8 9
8 7 5 5 5 5 4 4 4 3 4 6 8 7 5 3 2 4 8 8 3 3 5 6 6 6 6 6 6 7 7 7 6 6 7 7 7 8 8 9 9 10 10
6 6 5 5 4 4 4 4 4 4 4 3 3 5 3 3 5 4 6 5 6 6 6 6 6 6 7 7 7 7 8 7 8 8 7 8 8 8 8 9 9 11 11
7 7 4 3 4 4 4 4 4 4 4 4 4 5 4 3 3 3 4 6 6 6 6 7 6 7 7 7 7 7 8 8 8 8 8 8 8 8 9 11 10 10 9
5 6 2 2 4 4 4 4 4 4 4 3 4 6 6 6 5 6 6 6 6 6 6 6 6 7 6 6 7 8 9 8 8 8 8 8 9 9 9 9 10 10 10
3 3 3 4 4 4 4 3 3 3 3 4 3 3 1 4 5 6 6 6 6 6 6 6 6 6 7 7 8 8 9 9 8 9 10 10 10 10 9 9 10 10 10
3 3 4 4 4 3 1 3 3 3 4 4 4 5 4 5 6 6 6 6 6 6 6 6 6 6 7 7 7 7 8 8 9 11 11 11 10 10 9 10 12 12 11
3 3 3 3 2 2 3 3 3 3 4 4 4 5 5 5 5 6 6 6 7 6 6 7 7 9 11 10 8 8 8 10 12 11 13 12 12 10 10 10 11 12 11
3 3 3 3 2 2 3 3 3 4 4 4 4 5 5 5 5 6 6 6 8 7 8 8 7 8 12 13 11 11 10 10 10 11 12 11 12 12 11 12 11 12 12
4 3 3 3 3 3 3 3 3 3 4 4 4 4 5 5 6 6 6 7 8 8 8 7 10 12 12 10 12 13 10 10 10 11 11 10 11 10 11 10 13 11 12
Wind_Direction
191 190 192 193 196 198 201 205 208 212 208 209 209 208 209 209 208 211 226 213 219 221 221 221 228 252 246 236 232 238 241 250 261 261 232 208 220 257 233 239 245 239 229
186 186 191 192 195 199 202 206 208 212 213 212 214 215 217 219 215 214 222 221 221 224 224 225 228 224 227 249 246 243 244 251 258 265 261 234 218 233 243 250 253 244 253
182 184 186 189 192 200 203 203 205 208 213 216 215 220 224 226 223 223 224 227 228 230 229 227 230 232 230 234 239 246 241 233 239 255 255 254 245 235 237 242 248 253 262
178 180 182 188 191 195 197 200 205 208 212 217 220 224 227 230 230 229 227 229 231 231 232 233 234 234 234 237 237 242 250 251 240 248 255 249 241 236 239 251 251 234 249
174 175 176 181 183 184 189 195 196 203 211 214 217 221 229 236 238 237 234 229 228 229 229 232 234 238 254 255 260 248 243 245 247 246 251 254 250 246 249 256 264 269 258
162 163 162 163 166 167 169 172 175 183 197 202 208 210 216 237 241 242 252 247 235 231 229 229 229 220 231 235 262 276 278 262 263 265 263 264 270 270 271 274 276 274 274
138 146 147 147 148 151 158 163 164 167 176 183 184 181 163 47 64 159 233 255 246 242 239 241 246 233 234 245 232 232 245 249 257 269 275 279 285 286 288 277 274 278 281
116 119 128 130 131 133 133 131 131 129 124 118 101 91 78 49 43 43 233 230 252 270 273 268 267 294 322 305 275 260 254 244 239 241 263 274 285 298 285 278 281 275 269
101 99 102 108 109 108 106 102 96 94 90 86 80 74 70 53 38 31 350 157 129 74 21 31 3 20 25 342 288 276 273 270 241 238 271 276 286 280 279 278 273 272 274
92 90 88 90 96 95 91 87 86 87 85 82 75 68 67 58 42 37 17 34 51 54 69 74 61 42 30 357 313 300 293 303 307 290 260 252 257 249 230 246 267 272 278
91 89 85 85 87 89 90 90 93 93 91 88 84 77 68 59 50 40 31 33 33 36 35 36 57 48 35 16 347 342 337 317 298 288 283 279 274 272 263 258 268 277 281
89 86 83 81 82 86 89 90 92 98 100 96 92 86 79 70 56 49 44 40 15 33 27 20 49 38 16 354 351 2 318 290 282 287 287 288 289 289 291 292 288 283 278
91 87 85 83 81 83 87 90 92 89 89 91 90 85 77 70 75 72 66 57 30 19 37 65 19 310 284 241 175 265 277 278 297 296 296 299 301 302 297 286 275 268 265
96 95 94 91 85 75 67 68 67 64 72 74 70 70 73 64 41 26 22 35 31 16 3 191 206 224 247 271 261 249 277 318 314 303 303 303 301 298 293 296 296 295 290
95 95 94 89 85 78 66 49 57 51 38 41 50 49 37 52 37 16 4 9 359 1 325 304 320 331 324 333 331 334 324 319 311 313 310 308 307 304 302 304 301 298 294
98 97 97 99 99 103 102 87 58 67 67 61 49 44 69 58 40 24 17 1 335 319 307 330 348 343 339 340 336 334 335 338 336 326 319 315 313 310 307 306 302 299 297
87 86 90 93 99 100 104 111 113 101 87 79 73 63 58 52 35 10 347 322 298 294 311 356 353 345 341 339 337 334 334 335 328 318 316 316 314 310 307 304 302 300 298
92 88 86 87 83 81 78 78 81 91 109 107 104 95 84 68 22 336 316 303 315 339 1 358 350 346 344 341 336 333 329 326 322 319 316 314 312 310 307 305 304 304 304
82 81 75 79 81 77 74 71 68 63 63 64 77 112 137 203 203 243 298 347 5 3 1 357 354 350 345 340 335 330 326 324 326 321 318 318 315 310 306 305 303 303 297
85 63 51 80 82 77 66 59 57 53 52 47 38 29 8 337 4 25 11 10 2 3 358 353 349 343 339 336 332 331 328 326 324 320 319 316 313 309 306 304 301 300 296
96 105 134 82 66 55 53 52 49 39 36 34 50 55 342 336 7 10 6 6 4 360 354 345 339 338 339 337 336 332 327 324 325 323 319 315 311 307 304 299 296 294 294
98 98 78 65 69 54 41 49 47 43 36 23 29 89 273 327 8 7 4 4 360 353 350 343 337 341 343 340 334 329 325 325 327 325 320 315 310 305 301 298 296 296 294
88 91 85 77 79 96 55 48 41 35 28 22 15 12 14 11 5 5 360 360 354 348 348 341 335 338 342 335 329 323 324 332 331 323 315 309 307 305 302 299 297 297 297
81 79 83 86 73 59 53 48 39 30 22 19 16 13 11 10 5 4 355 356 351 348 346 341 338 339 341 336 330 331 351 346 328 313 308 303 300 300 300 299 298 298 298
95 87 87 78 67 58 51 44 35 24 18 17 14 8 6 3 2 2 357 354 346 345 344 341 341 342 339 336 340 346 350 326 311 311 304 296 295 296 297 297 298 300 300
86 82 75 70 62 53 51 43 35 21 16 17 11 5 2 1 2 359 356 353 345 343 343 342 344 341 338 341 350 342 323 316 312 306 298 292 294 299 306 303 303 303 302